[[{"header":{"parameterUnit":"m.s-1","parameterCategory":1,"la1":30.2991,"la2":30.254,"lo1":-89.0895,"lo2":-89.0444,"dy":0.0017,"dx":0.0017,"nx":28,"ny":28,"refTime":"2023-10-26T03:00:00:Z","depth":0,"parameterNumber":2,"parameterNumberName":"U-component_of_WINDS"},"data":[0,0,0,0,0,0,0,0,0,0,0,0,0,0,0,0,0,0,0,0,0,0,0,0,0,0,0,0,0,0,0,0,0,0,0,0,0,0,0,0,0,0,0,0,0,0,0,0,0,0,0,0,0,0,0,0,0,0,-3.9822,-3.9822,0,-3.9874,-3.9875,-3.9875,-3.9814,-3.9812,-3.9809,-3.9807,-3.9862,-3.9865,-3.9869,0,0,0,0,0,0,0,0,0,0,0,0,0,-3.9672,-3.9675,-3.9822,-3.9822,-3.9823,-3.9874,-3.9875,-3.9876,-3.9814,-3.9811,-3.9809,-3.9806,-3.9861,-3.9865,-3.9869,0,0,0,0,0,0,0,0,0,0,0,0,0,-3.9732,-3.9676,-3.9821,-3.9798,-3.9797,-3.9874,-3.9875,-3.9876,-3.9815,-3.9811,-3.9808,-3.9805,-3.9859,-3.9865,-3.987,-3.9972,0,0,-3.9886,-3.9889,0,0,0,0,0,0,0,0,-3.9728,-3.9737,-3.9801,-3.98,-3.9799,-3.9834,-3.9842,-3.9908,-3.9816,-3.9808,-3.9807,-3.9803,-3.9855,-3.9861,-3.9878,-3.9975,-3.9977,-3.9887,-3.989,-3.9893,-3.9894,0,0,0,0,0,0,0,-3.9724,-3.9735,-3.9842,-3.9802,-3.9801,-3.9787,-3.9791,-3.9854,-3.9851,-3.9808,-3.9804,-3.9811,-3.9854,-3.9873,-3.9879,-3.9978,-3.9887,-3.9892,-3.9895,-3.9897,-4.0165,-4.0168,0,0,0,0,0,0,-3.9722,-3.9732,-3.9841,-3.9844,-3.9754,-3.9792,-3.9797,-3.9826,-3.985,-3.985,-3.9814,-3.9808,-3.9866,-3.9873,-3.9881,-4.0004,-3.9893,-3.9898,-3.9901,-4.0161,-4.0166,-4.017,0,0,0,0,0,0,-3.9719,-3.9733,-3.9839,-3.9787,-3.9799,-3.9798,-3.9831,-3.9829,-3.9848,-3.9854,-3.9853,-3.9834,-3.9863,-3.9873,-3.9951,-4.0005,-3.99,-3.9905,-4.0156,-4.0162,-4.0168,-4.0249,0,0,0,0,0,0,-3.9715,-3.9732,-3.977,-3.9788,-3.9802,-3.9906,-3.9834,-3.9832,-3.9857,-3.985,-3.9873,-3.9873,-3.9861,-3.9943,-3.9956,-4.001,-3.9909,-4.0151,-4.0159,-4.0166,-4.0242,-4.0257,-4.027,0,0,0,0,0,-3.971,-3.979,-3.9772,-3.9785,-3.9849,-3.991,-3.9918,-3.9902,-3.9862,-3.9901,-3.9905,-3.9872,-3.9997,-3.9951,-3.9966,-4.0022,-4.0148,-4.0157,-4.0165,-4.0235,-4.0254,-4.027,0,0,0,0,0,0,-3.9777,-3.9792,-3.9772,-3.986,-3.9884,-3.9899,-3.9947,-3.9923,-3.9959,-3.995,-3.9931,-3.9937,-4.0019,-4.0029,-3.9977,-4.0124,-4.0066,-4.0078,-4.0114,-4.0132,-4.0146,-4.0142,-3.9914,0,0,0,0,0,-3.9803,-3.985,-3.986,-3.9937,-3.995,-3.9947,-3.9973,-3.996,-3.9984,-3.9994,-4.0003,-4.0029,-4.0074,-4.0104,-4.0146,-4.0244,-4.0249,-4.029,-4.0305,-4.0316,-4.0326,-4.0381,-4.04,-4.0198,-4.0198,-4.0198,0,0,-3.9855,-3.9869,-3.9899,-3.9951,-3.9968,-4.0019,-3.9956,-4.0011,-4.0049,-4.0002,-4.0075,-4.0085,-4.0112,-4.0201,-4.024,-4.0211,-4.0384,-4.0327,-4.0337,-4.034,-4.0392,-4.0411,-4.0428,-4.0204,-4.0203,-4.0202,0,0,-3.9975,-3.999,-4.0057,-4.0076,-4.0103,-4.0101,-4.0118,-4.0137,-4.0141,-4.0215,-4.0182,-4.0228,-4.0306,-4.0327,-4.0348,-4.0482,-4.0454,-4.0497,-4.0571,-4.0624,-4.064,-4.0654,-4.0702,-4.072,-4.0507,-4.0507,-4.0508,0,-4.0036,-4.011,-4.0094,-4.0152,-4.0177,-4.0139,-4.0207,-4.0227,-4.0266,-4.0285,-4.0252,-4.0351,-4.0367,-4.0461,-4.0494,-4.0513,-4.0532,-4.0493,-4.0639,-4.0653,-4.0666,-4.0711,-4.073,-4.0512,-4.0512,-4.0511,-4.0511,0,-4.0184,-4.0237,-4.0287,-4.0327,-4.0358,-4.0421,-4.0416,-4.045,-4.0435,-4.0437,-4.0515,-4.0533,-4.0579,-4.0601,-4.0587,-4.0694,-4.0676,-4.0642,-4.0582,-4.069,-4.0733,-4.075,-4.052,-4.0518,-4.0516,-4.0515,0,0,-4.0344,-4.0378,-4.0397,-4.0415,-4.0445,-4.0485,-4.0549,-4.0594,-4.0623,-4.0654,-4.0707,-4.0776,-4.0745,-4.077,-4.0759,-4.0806,-4.0912,-4.0766,-4.0766,-4.0792,-4.1033,-4.1058,-4.1078,-4.0895,-4.0898,-4.0901,-4.1031,0,-4.0465,-4.0573,-4.0563,-4.0666,-4.0715,-4.0682,-4.0737,-4.0762,-4.0767,-4.0811,-4.0816,-4.0866,-4.0822,-4.0837,-4.0882,-4.089,-4.096,-4.088,-4.0944,-4.0947,-4.0937,-4.11,-4.1126,-4.1247,-4.1047,-4.105,-4.1052,0,-4.0619,-4.0656,-4.0764,-4.0789,-4.0809,-4.0858,-4.0901,-4.0943,-4.0972,-4.0972,-4.1002,-4.0984,-4.1049,-4.0991,-4.1082,-4.1028,-4.1054,-4.1063,-4.1067,-4.1071,-4.1005,-4.1108,-4.1285,-4.1303,-4.1078,-4.1076,-4.1074,0,-4.0725,-4.0802,-4.0877,-4.0894,-4.0925,-4.0961,-4.0976,-4.1001,-4.103,-4.1068,-4.1087,-4.1133,-4.1157,-4.1193,-4.1189,-4.1147,-4.1282,-4.1223,-4.1285,-4.1285,-4.1312,-4.131,-4.1496,-4.1332,-4.1332,-4.1331,-4.1331,0,-4.086,-4.0927,-4.0925,-4.0971,-4.1047,-4.1036,-4.1111,-4.1122,-4.1146,-4.1195,-4.117,-4.1217,-4.1209,-4.1256,-4.1253,-4.133,-4.1341,-4.1344,-4.1342,-4.1345,-4.1345,-4.1361,-4.1352,-4.1336,-4.1335,-4.1334,-4.1333,0,-4.099,-4.0991,-4.107,-4.1094,-4.1102,-4.1157,-4.1178,-4.1222,-4.1227,-4.129,-4.1304,-4.1311,-4.1366,-4.1366,-4.1428,-4.1427,-4.152,-4.1509,-4.151,-4.1507,-4.1569,-4.1563,-4.177,-4.1797,-4.1617,-4.1619,-4.162,0,-4.1075,-4.1126,-4.1156,-4.1187,-4.1204,-4.1255,-4.1285,-4.1278,-4.131,-4.135,-4.139,-4.1443,-4.1484,-4.1574,-4.1585,-4.1634,-4.1623,-4.1693,-4.163,-4.1633,-4.1624,-4.1621,-4.1626,-4.1704,-4.1706,-4.1708,-4.1709,0,-4.1226,-4.1225,-4.1268,-4.1314,-4.1351,-4.1386,-4.1419,-4.1446,-4.1443,-4.1482,-4.1538,-4.157,-4.1635,-4.1688,-4.1736,-4.1752,-4.1731,-4.1729,-4.1746,-4.1749,-4.1747,-4.1749,-4.1542,-4.1724,-4.1722,-4.1721,-4.172,-4.172,-4.1335,-4.138,-4.1409,-4.146,-4.1484,-4.1516,-4.156,-4.1571,-4.1618,-4.167,-4.1664,-4.1727,-4.1758,-4.182,-4.1841,-4.1891,-4.1867,-4.1891,-4.1897,-4.1903,-4.191,-4.1741,-4.19,-4.19,-4.1899,-4.1899,-4.1899,0,-4.1485,-4.1503,-4.155,-4.1597,-4.1638,-4.1616,-4.1652,-4.1687,-4.1743,-4.1774,-4.1816,-4.1882,-4.1935,-4.1952,-4.2004,-4.204,-4.2032,-4.2054,-4.205,-4.2055,-4.1928,-4.1908,-4.206,-4.206,-4.206,-4.206,-4.206,-4.206,-4.1567,-4.1642,-4.1646,-4.1734,-4.1752,-4.1813,-4.1836,-4.1866,-4.1891,-4.1966,-4.2009,-4.2021,-4.2047,-4.2101,-4.2149,-4.2153,-4.2173,-4.2199,-4.2199,-4.208,-4.2064,-4.2048,-4.2029,-4.2204,-4.2204,-4.2321,-4.2322,-4.2323]},{"header":{"parameterUnit":"m.s-1","parameterCategory":1,"la1":30.2991,"la2":30.254,"lo1":-89.0895,"lo2":-89.0444,"dy":0.0017,"dx":0.0017,"nx":28,"ny":28,"refTime":"2023-10-26T03:00:00:Z","depth":0,"parameterNumber":3,"parameterNumberName":"V-component_of_WINDS"},"data":[0,0,0,0,0,0,0,0,0,0,0,0,0,0,0,0,0,0,0,0,0,0,0,0,0,0,0,0,0,0,0,0,0,0,0,0,0,0,0,0,0,0,0,0,0,0,0,0,0,0,0,0,0,0,0,0,0,0,2.5184,2.5184,0,2.5157,2.5157,2.5156,2.5084,2.5082,2.5081,2.5079,2.5047,2.5048,2.5049,0,0,0,0,0,0,0,0,0,0,0,0,0,2.5171,2.5172,2.5184,2.5184,2.5183,2.5157,2.5157,2.5156,2.5084,2.5082,2.508,2.5078,2.5047,2.5048,2.5049,0,0,0,0,0,0,0,0,0,0,0,0,0,2.5164,2.5172,2.5184,2.5144,2.514,2.5157,2.5157,2.5156,2.5084,2.5082,2.508,2.5078,2.5047,2.5048,2.5049,2.5101,0,0,2.5052,2.5052,0,0,0,0,0,0,0,0,2.5164,2.5164,2.515,2.5147,2.5143,2.5121,2.5141,2.5138,2.5085,2.5105,2.5079,2.5076,2.5074,2.5072,2.5072,2.5099,2.5098,2.5052,2.5052,2.5053,2.5053,0,0,0,0,0,0,0,2.5165,2.5165,2.5173,2.515,2.5146,2.5127,2.5124,2.514,2.5103,2.5103,2.5098,2.5096,2.5071,2.5072,2.5071,2.5098,2.5052,2.5052,2.5053,2.5053,2.517,2.5172,0,0,0,0,0,0,2.5172,2.5166,2.5174,2.5172,2.5148,2.5129,2.5125,2.5131,2.5102,2.5096,2.5098,2.5093,2.5071,2.507,2.507,2.5131,2.5053,2.5053,2.5054,2.5167,2.5171,2.5173,0,0,0,0,0,0,2.5172,2.5173,2.5175,2.5168,2.5167,2.5132,2.5139,2.5131,2.5132,2.5099,2.5091,2.5106,2.5069,2.5068,2.5095,2.5129,2.5054,2.5055,2.5164,2.5168,2.5172,2.5253,0,0,0,0,0,0,2.5172,2.5173,2.5193,2.5169,2.5167,2.5201,2.5141,2.5132,2.5134,2.5127,2.5103,2.5097,2.5067,2.5094,2.5096,2.5128,2.5055,2.5161,2.5166,2.5171,2.5247,2.5259,2.5269,0,0,0,0,0,2.5171,2.5215,2.5194,2.5196,2.5191,2.5203,2.5202,2.5168,2.5137,2.5156,2.5136,2.5098,2.5125,2.5097,2.5099,2.5132,2.5159,2.5165,2.517,2.5242,2.5257,2.5269,0,0,0,0,0,0,2.5241,2.5211,2.5187,2.5225,2.5218,2.5191,2.5214,2.5184,2.5184,2.5177,2.5134,2.5129,2.5163,2.515,2.5119,2.5183,2.5136,2.5142,2.519,2.5204,2.5214,2.5217,2.5056,0,0,0,0,0,2.5261,2.5275,2.5247,2.5283,2.5281,2.5249,2.5252,2.5227,2.5217,2.5213,2.5194,2.5185,2.5192,2.5197,2.5201,2.5245,2.524,2.5269,2.5281,2.529,2.5296,2.5321,2.5334,2.5192,2.5192,2.5192,0,0,2.5302,2.5287,2.5298,2.5297,2.5288,2.5303,2.5246,2.5263,2.5274,2.5215,2.524,2.5227,2.5214,2.525,2.5265,2.5241,2.5334,2.5297,2.5305,2.5305,2.5328,2.5342,2.5354,2.5196,2.5195,2.5195,0,0,2.5384,2.5374,2.5404,2.5398,2.5387,2.5366,2.5374,2.5353,2.5342,2.5367,2.5325,2.5336,2.5348,2.5342,2.534,2.5425,2.5391,2.5428,2.5485,2.5511,2.5522,2.5531,2.5563,2.5575,2.5434,2.5434,2.5434,0,2.5436,2.5457,2.5423,2.5444,2.5446,2.5397,2.5427,2.5422,2.5413,2.5415,2.5388,2.5405,2.5392,2.5428,2.5449,2.5449,2.5457,2.5429,2.5523,2.5533,2.5541,2.5571,2.5583,2.5439,2.5438,2.5438,2.5437,0,2.5523,2.5539,2.5564,2.5559,2.5563,2.5589,2.5559,2.5567,2.5543,2.5526,2.5553,2.5537,2.5539,2.5545,2.552,2.5579,2.5564,2.5531,2.5483,2.556,2.5587,2.5598,2.5445,2.5443,2.5442,2.5441,0,0,2.5644,2.5624,2.5634,2.5633,2.5619,2.563,2.5655,2.5659,2.5668,2.5664,2.5684,2.5697,2.5668,2.5666,2.564,2.5663,2.5734,2.5627,2.5626,2.5648,2.5799,2.5825,2.5838,2.5712,2.5714,2.5716,2.5801,0,2.5723,2.5765,2.5737,2.5784,2.5799,2.5755,2.5777,2.5771,2.5756,2.5766,2.5749,2.576,2.572,2.5719,2.5739,2.5721,2.5764,2.5714,2.573,2.5731,2.5735,2.5852,2.5878,2.5959,2.5811,2.5813,2.5814,0,2.582,2.5824,2.5873,2.586,2.5865,2.5885,2.5888,2.5899,2.5892,2.588,2.5881,2.5851,2.5874,2.5828,2.5861,2.5828,2.5834,2.5826,2.5829,2.5828,2.5777,2.5856,2.5984,2.5997,2.583,2.5829,2.5828,0,2.5906,2.5923,2.5956,2.5956,2.5941,2.5956,2.5951,2.5942,2.5947,2.595,2.5953,2.5958,2.596,2.5965,2.5937,2.5906,2.5974,2.5925,2.5965,2.5966,2.5981,2.598,2.6112,2.5984,2.5984,2.5983,2.5983,0,2.5997,2.6029,2.5995,2.6015,2.605,2.6018,2.6053,2.6043,2.6036,2.6054,2.6015,2.6032,2.5994,2.6008,2.5986,2.6018,2.6018,2.601,2.6003,2.6013,2.6015,2.6015,2.6009,2.5987,2.5986,2.5985,2.5985,0,2.6098,2.6077,2.6109,2.6094,2.6091,2.6118,2.6105,2.6123,2.6107,2.613,2.6133,2.6108,2.6122,2.6095,2.6105,2.609,2.6136,2.612,2.6139,2.6134,2.6176,2.6173,2.6313,2.6331,2.6191,2.6193,2.6194,0,2.6158,2.6182,2.6171,2.6181,2.6179,2.6194,2.6201,2.6171,2.6179,2.6176,2.6195,2.6207,2.6214,2.6239,2.6221,2.6229,2.6214,2.6263,2.6214,2.6225,2.6216,2.6215,2.6218,2.6272,2.6274,2.6275,2.6276,0,2.6266,2.6255,2.6267,2.6277,2.6286,2.6291,2.6293,2.6304,2.6272,2.6284,2.6299,2.6305,2.6318,2.633,2.6335,2.6328,2.6298,2.6292,2.6302,2.6312,2.6322,2.6319,2.6166,2.6289,2.6287,2.6286,2.6286,2.6285,2.6349,2.637,2.6366,2.6382,2.6381,2.6385,2.6403,2.6391,2.6404,2.6413,2.6394,2.6415,2.641,2.6414,2.6411,2.6427,2.6405,2.6419,2.6422,2.6426,2.6434,2.6321,2.6427,2.6427,2.6426,2.6426,2.6426,0,2.6456,2.6453,2.6468,2.6474,2.6487,2.646,2.6462,2.6474,2.6493,2.6493,2.6502,2.6522,2.6534,2.6519,2.6529,2.6545,2.6532,2.6549,2.6547,2.6547,2.6452,2.6443,2.656,2.656,2.656,2.656,2.656,2.656,2.6514,2.6548,2.6538,2.6573,2.6569,2.6591,2.6595,2.6599,2.6599,2.6623,2.6634,2.6625,2.6619,2.6629,2.664,2.6636,2.6641,2.6664,2.6654,2.6566,2.6553,2.654,2.6532,2.6665,2.6665,2.6748,2.6748,2.6749]}]]